Location: Lake Sonoma
(38.7200°N, 123.0564°W)
Time: 03:28:11
(UTC-07:00)

ISS - Visible Passes

Search period start: 28 August 2016 00:00
Search period end: 07 September 2016 00:00
Orbit: 402 x 406 km, 51.6° (Epoch: 28 August)

Date Brightness Start Highest point End Pass type
(mag) Time Alt. Az. Time Alt. Az. Time Alt. Az.
02 Sep -0.5 05:48:15 10° SSE 05:49:55 13° SE 05:51:35 10° E visible
04 Sep -1.9 05:38:34 12° SSW 05:41:11 33° SE 05:44:11 10° ENE visible
05 Sep -1.0 04:48:37 16° SE 04:48:53 17° SE 04:51:04 10° E visible
06 Sep -3.4 05:31:13 33° SW 05:32:35 88° ESE 05:35:52 10° NE visible
